Location: Ladirat
(44.8151°N, 1.9702°E)
Time: 10:37:51
(UTC+00:00)

RESURS DK-1 - Pass Details

Date: 15 May 2026
Orbit: 522 x 531 km, 69.9° (Epoch: 6 June)

Event Time Altitude Azimuth Distance (km) Brightness Sun altitude
Rises 22:14:30 0° 340° (NNW) 2,681 7.3 -22.6°
Reaches altitude 10° 22:16:52 10° 351° (N) 1,788 6.0 -22.8°
Maximum altitude 22:20:28 32° 55° (NE) 938 3.5 -23.1°
Enters shadow 22:20:42 31° 63° (ENE) 943 3.5 -23.1°
